TimeAST,TemperatureF,Dew PointF,Humidity,Sea Level PressureIn,VisibilityMPH,Wind Direction,Wind SpeedMPH,Gust SpeedMPH,PrecipitationIn,Events,Conditions,WindDirDegrees,DateUTC
12:00 AM,77.0,73.4,89,29.95,6.2,East,13.8,-,N/A,,Scattered Clouds,90,2013-01-08 04:00:00
1:00 AM,78.8,73.4,83,29.92,6.2,East,13.8,-,N/A,,Scattered Clouds,80,2013-01-08 05:00:00
2:00 AM,79,74,79,,,East,17.3,,,,Clear,80,2013-01-08 06:00:00
2:00 AM,78.8,73.4,83,29.92,-9999.0,East,17.3,-,N/A,,Unknown,80,2013-01-08 06:00:00
3:00 AM,77.0,71.6,83,29.89,-9999.0,East,17.3,-,N/A,,Unknown,100,2013-01-08 07:00:00
4:00 AM,78.8,73.4,83,29.89,-9999.0,East,16.1,-,N/A,,Unknown,90,2013-01-08 08:00:00
5:00 AM,79,73,76,,,East,16.1,,,,Clear,90,2013-01-08 09:00:00
5:00 AM,78.8,73.4,83,29.92,-9999.0,East,16.1,-,N/A,,Unknown,90,2013-01-08 09:00:00
6:00 AM,78.8,73.4,83,29.92,-9999.0,East,15.0,-,N/A,,Unknown,90,2013-01-08 10:00:00
7:00 AM,78.8,73.4,83,29.95,-9999.0,East,15.0,-,N/A,,Unknown,90,2013-01-08 11:00:00
8:00 AM,81,74,73,,,East,19.6,,,,Clear,90,2013-01-08 12:00:00
8:00 AM,82.4,73.4,74,29.98,6.2,East,20.7,-,N/A,,Scattered Clouds,90,2013-01-08 12:00:00
9:00 AM,82.4,75.2,79,29.98,6.2,East,23.0,-,N/A,,Scattered Clouds,100,2013-01-08 13:00:00
10:00 AM,82.4,73.4,74,30.01,-9999.0,North,-9999.0,-,N/A,,Unknown,0,2013-01-08 14:00:00
11:00 AM,84.2,73.4,70,30.01,6.2,ESE,21.9,-,N/A,,Scattered Clouds,110,2013-01-08 15:00:00
12:00 PM,78.8,75.2,89,30.01,6.2,ESE,17.3,-,N/A,Rain,Light Rain,110,2013-01-08 16:00:00
1:00 PM,77.0,77.0,100,29.95,-9999.0,East,19.6,-,N/A,Rain,Rain,100,2013-01-08 17:00:00
2:00 PM,84.2,75.2,74,29.95,-9999.0,East,23.0,-,N/A,,Unknown,100,2013-01-08 18:00:00
3:00 PM,84.2,75.2,74,29.92,-9999.0,East,17.3,-,N/A,,Unknown,90,2013-01-08 19:00:00
4:00 PM,84.2,73.4,70,29.92,6.2,East,25.3,-,N/A,,Scattered Clouds,100,2013-01-08 20:00:00
5:00 PM,83,76,73,29.92,22,East,17.3,,,,Partly Cloudy,90,2013-01-08 21:00:00
5:00 PM,82.4,75.2,79,29.89,6.2,East,17.3,-,N/A,,Scattered Clouds,90,2013-01-08 21:00:00
6:00 PM,78.8,73.4,83,29.92,-9999.0,East,19.6,-,N/A,,Unknown,80,2013-01-08 22:00:00
7:00 PM,75.2,71.6,89,29.92,6.2,East,19.6,-,N/A,,Scattered Clouds,90,2013-01-08 23:00:00
8:00 PM,79,74,81,29.96,16,East,19.6,,,,Partly Cloudy,90,2013-01-09 00:00:00
8:00 PM,78.8,73.4,83,29.95,-9999.0,East,17.3,-,N/A,,Unknown,80,2013-01-09 00:00:00
9:00 PM,78.8,75.2,89,29.95,-9999.0,East,17.3,-,N/A,,Unknown,80,2013-01-09 01:00:00
10:00 PM,80.6,73.4,79,29.98,-9999.0,North,-9999.0,-,N/A,,Unknown,0,2013-01-09 02:00:00
11:00 PM,78,72,78,,16,East,18.4,,,,Clear,90,2013-01-09 03:00:00
11:00 PM,78.8,71.6,78,29.98,-9999.0,North,-9999.0,-,N/A,,Unknown,0,2013-01-09 03:00:00